EWG4LC EPKK-EDDG

Flight info

Callsign EWG4LC
Flight time 1h 26m
Altitude 36000
Route OMFOL DCT DINOV T738 LASIS DCT BOLBO L986 SAS L980 OSNAD OSNAD1A
Aircraft A320/M-SDE3FGHIRWY/LB1

Departure

Time 2026-05-08 17:56
Airport Kraków John Paul II International Airport (EPKK)

Arrival

Time 2026-05-08 19:23
Airport Münster Osnabrück Airport (EDDG)
Time Latitude Longitude Altitude Speed Heading
2026-05-08 17:21 50.07453 19.79840 791 ft 0 kts 257°
2026-05-08 17:52 50.07453 19.79837 790 ft 2 kts 257°
2026-05-08 17:52 50.07453 19.79777 790 ft 7 kts 296°
2026-05-08 17:52 50.07574 19.79723 790 ft 14 kts 347°
2026-05-08 17:53 50.07667 19.79697 790 ft 12 kts
2026-05-08 17:53 50.07704 19.79798 790 ft 11 kts 76°
2026-05-08 17:53 50.07719 19.79902 790 ft 9 kts 78°
2026-05-08 17:53 50.07732 19.79998 790 ft 10 kts 78°
2026-05-08 17:54 50.07746 19.80104 790 ft 9 kts 78°
2026-05-08 17:54 50.07759 19.80197 790 ft 10 kts 78°
2026-05-08 17:54 50.07782 19.80333 790 ft 12 kts 50°
2026-05-08 17:54 50.07864 19.80328 790 ft 13 kts 346°
2026-05-08 17:55 50.07956 19.80292 790 ft 14 kts 346°
2026-05-08 17:55 50.08019 19.80244 790 ft 6 kts 283°
2026-05-08 17:55 50.08013 19.80198 790 ft 2 kts 257°
2026-05-08 17:55 50.08009 19.80169 790 ft 8 kts 257°
2026-05-08 17:56 50.07946 19.79726 790 ft 79 kts 258°
2026-05-08 17:56 50.07787 19.78574 792 ft 136 kts 258°
2026-05-08 17:56 50.07571 19.76982 1181 ft 151 kts 260°
2026-05-08 17:56 50.07353 19.75401 1917 ft 149 kts 260°
2026-05-08 17:57 50.07125 19.73758 2276 ft 167 kts 259°
2026-05-08 17:57 50.06866 19.71895 2614 ft 186 kts 259°
2026-05-08 17:57 50.06570 19.69833 2934 ft 204 kts 259°
2026-05-08 17:57 50.06245 19.67555 3211 ft 228 kts 259°
2026-05-08 17:58 50.05887 19.65006 3596 ft 253 kts 258°
2026-05-08 17:58 50.05697 19.62242 4286 ft 262 kts 277°
2026-05-08 17:58 50.06241 19.59529 5161 ft 265 kts 295°
2026-05-08 17:58 50.07053 19.56944 6108 ft 266 kts 295°
2026-05-08 17:59 50.07883 19.54347 7015 ft 269 kts 295°
2026-05-08 17:59 50.08722 19.51736 7881 ft 271 kts 295°
2026-05-08 17:59 50.09569 19.49097 8747 ft 274 kts 294°
2026-05-08 17:59 50.10423 19.46430 9608 ft 276 kts 294°
2026-05-08 18:00 50.11270 19.43772 10388 ft 281 kts 293°
2026-05-08 18:00 50.13125 19.37903 11092 ft 318 kts 293°
2026-05-08 18:00 50.14109 19.34784 11791 ft 323 kts 294°
2026-05-08 18:01 50.15105 19.31626 12559 ft 326 kts 294°
2026-05-08 18:01 50.16108 19.28439 13316 ft 329 kts 294°
2026-05-08 18:01 50.17120 19.25225 14038 ft 332 kts 294°
2026-05-08 18:01 50.18139 19.21981 14690 ft 335 kts 294°
2026-05-08 18:02 50.19164 19.18712 15319 ft 337 kts 294°
2026-05-08 18:02 50.19863 19.16480 15743 ft 339 kts 294°
2026-05-08 18:02 50.21242 19.12065 16585 ft 344 kts 294°
2026-05-08 18:02 50.22299 19.08684 17185 ft 348 kts 294°
2026-05-08 18:03 50.23363 19.05277 17834 ft 351 kts 294°
2026-05-08 18:03 50.24437 19.01841 18451 ft 354 kts 294°
2026-05-08 18:03 50.25520 18.98370 18984 ft 356 kts 294°
2026-05-08 18:03 50.26606 18.94883 19528 ft 359 kts 294°
2026-05-08 18:04 50.27700 18.91358 20071 ft 361 kts 294°
2026-05-08 18:04 50.28797 18.87816 20608 ft 363 kts 294°
2026-05-08 18:04 50.29901 18.84246 21136 ft 366 kts 294°
2026-05-08 18:04 50.31011 18.80652 21665 ft 368 kts 294°
2026-05-08 18:05 50.32127 18.77035 22159 ft 370 kts 294°
2026-05-08 18:05 50.33234 18.73446 22674 ft 373 kts 294°
2026-05-08 18:05 50.34362 18.69779 23182 ft 375 kts 294°
2026-05-08 18:05 50.35495 18.66092 23671 ft 377 kts 294°
2026-05-08 18:06 50.36636 18.62382 24083 ft 379 kts 293°
2026-05-08 18:06 50.37781 18.58643 24499 ft 381 kts 293°
2026-05-08 18:06 50.38927 18.54891 24906 ft 383 kts 293°
2026-05-08 18:06 50.40076 18.51116 25304 ft 384 kts 293°
2026-05-08 18:07 50.41227 18.47333 25701 ft 386 kts 293°
2026-05-08 18:07 50.42386 18.43518 26096 ft 388 kts 293°
2026-05-08 18:07 50.43549 18.39691 26487 ft 389 kts 293°
2026-05-08 18:07 50.44712 18.35853 26865 ft 391 kts 293°
2026-05-08 18:08 50.45489 18.33289 27113 ft 392 kts 293°
2026-05-08 18:08 50.46662 18.29416 27488 ft 394 kts 292°
2026-05-08 18:08 50.47841 18.25520 27858 ft 396 kts 292°
2026-05-08 18:08 50.49025 18.21608 28225 ft 398 kts 292°
2026-05-08 18:09 50.50211 18.17678 28588 ft 399 kts 292°
2026-05-08 18:09 50.51400 18.13722 28932 ft 401 kts 292°
2026-05-08 18:09 50.52590 18.09749 29292 ft 403 kts 292°
2026-05-08 18:09 50.53789 18.05744 29634 ft 405 kts 292°
2026-05-08 18:10 50.54989 18.01728 29978 ft 407 kts 292°
2026-05-08 18:10 50.56189 17.97700 30288 ft 408 kts 292°
2026-05-08 18:10 50.57398 17.93645 30552 ft 410 kts 292°
2026-05-08 18:10 50.58615 17.89558 30785 ft 413 kts 292°
2026-05-08 18:11 50.59831 17.85462 31014 ft 415 kts 292°
2026-05-08 18:11 50.61057 17.81329 31247 ft 417 kts 292°
2026-05-08 18:11 50.62287 17.77182 31502 ft 419 kts 292°
2026-05-08 18:11 50.63516 17.73032 31829 ft 418 kts 292°
2026-05-08 18:12 50.64727 17.68935 32161 ft 418 kts 292°
2026-05-08 18:12 50.65953 17.64773 32485 ft 418 kts 292°
2026-05-08 18:12 50.67174 17.60630 32807 ft 418 kts 292°
2026-05-08 18:12 50.68396 17.56476 33126 ft 417 kts 292°
2026-05-08 18:13 50.69615 17.52321 33448 ft 417 kts 292°
2026-05-08 18:13 50.70834 17.48155 33749 ft 418 kts 292°
2026-05-08 18:13 50.72050 17.43991 34063 ft 418 kts 292°
2026-05-08 18:13 50.73266 17.39825 34342 ft 418 kts 292°
2026-05-08 18:14 50.74480 17.35657 34602 ft 418 kts 292°
2026-05-08 18:14 50.75690 17.31492 34899 ft 417 kts 292°
2026-05-08 18:14 50.76895 17.27338 35155 ft 416 kts 292°
2026-05-08 18:14 50.78101 17.23176 35388 ft 417 kts 292°
2026-05-08 18:15 50.79306 17.19013 35587 ft 417 kts 292°
2026-05-08 18:15 50.80510 17.14837 35806 ft 418 kts 292°
2026-05-08 18:15 50.81711 17.10651 36007 ft 418 kts 292°
2026-05-08 18:15 50.82914 17.06453 36128 ft 419 kts 292°
2026-05-08 18:16 50.85307 16.98107 36165 ft 415 kts 292°
2026-05-08 18:16 50.87686 16.89802 36166 ft 414 kts 292°
2026-05-08 18:17 50.90054 16.81486 36166 ft 414 kts 292°
2026-05-08 18:17 50.92413 16.73153 36164 ft 414 kts 292°
2026-05-08 18:18 50.94769 16.64821 36167 ft 414 kts 292°
2026-05-08 18:18 50.97128 16.56476 36162 ft 414 kts 292°
2026-05-08 18:19 50.99457 16.48179 36159 ft 414 kts 292°
2026-05-08 18:19 51.01793 16.39817 36157 ft 414 kts 292°
2026-05-08 18:20 51.04126 16.31458 36157 ft 414 kts 292°
2026-05-08 18:20 51.06455 16.23081 36170 ft 414 kts 292°
2026-05-08 18:21 51.08775 16.14693 36165 ft 414 kts 292°
2026-05-08 18:21 51.11091 16.06306 36153 ft 414 kts 292°
2026-05-08 18:22 51.13402 15.97893 36158 ft 414 kts 291°
2026-05-08 18:22 51.15704 15.89475 36165 ft 414 kts 291°
2026-05-08 18:23 51.17989 15.81107 36163 ft 415 kts 291°
2026-05-08 18:23 51.20279 15.72675 36167 ft 415 kts 291°
2026-05-08 18:24 51.22567 15.64231 36162 ft 415 kts 291°
2026-05-08 18:24 51.24853 15.55776 36174 ft 415 kts 291°
2026-05-08 18:25 51.27125 15.47328 36169 ft 414 kts 291°
2026-05-08 18:25 51.29351 15.38834 36178 ft 414 kts 289°
2026-05-08 18:26 51.31258 15.30159 36168 ft 414 kts 287°
2026-05-08 18:26 51.33018 15.21415 36167 ft 414 kts 286°
2026-05-08 18:27 51.34509 15.14146 36170 ft 414 kts 287°
2026-05-08 18:27 51.36658 15.03950 36166 ft 414 kts 287°
2026-05-08 18:28 51.38504 14.95222 36165 ft 414 kts 287°
2026-05-08 18:28 51.40333 14.86483 36172 ft 414 kts 287°
2026-05-08 18:29 51.42154 14.77734 36174 ft 414 kts 287°
2026-05-08 18:29 51.43965 14.68967 36168 ft 414 kts 287°
2026-05-08 18:30 51.45773 14.60194 36171 ft 414 kts 287°
2026-05-08 18:30 51.47579 14.51414 36184 ft 414 kts 287°
2026-05-08 18:31 51.49369 14.42630 36178 ft 415 kts 287°
2026-05-08 18:31 51.51145 14.33893 36178 ft 415 kts 287°
2026-05-08 18:32 51.52929 14.25084 36180 ft 415 kts 287°
2026-05-08 18:32 51.54709 14.16268 36178 ft 415 kts 287°
2026-05-08 18:33 51.56477 14.07443 36179 ft 415 kts 286°
2026-05-08 18:33 51.58238 13.98613 36180 ft 415 kts 286°
2026-05-08 18:34 51.59995 13.89784 36178 ft 415 kts 286°
2026-05-08 18:34 51.61747 13.80951 36185 ft 415 kts 286°
2026-05-08 18:35 51.63490 13.72099 36186 ft 415 kts 286°
2026-05-08 18:35 51.65227 13.63255 36191 ft 415 kts 286°
2026-05-08 18:36 51.66955 13.54396 36192 ft 415 kts 286°
2026-05-08 18:36 51.68677 13.45524 36195 ft 415 kts 285°
2026-05-08 18:37 51.70332 13.36613 36196 ft 415 kts 285°
2026-05-08 18:37 51.71920 13.27666 36199 ft 415 kts 284°
2026-05-08 18:38 51.73495 13.18707 36210 ft 415 kts 284°
2026-05-08 18:38 51.75069 13.09817 36209 ft 415 kts 284°
2026-05-08 18:39 51.76660 13.00852 36209 ft 415 kts 284°
2026-05-08 18:39 51.78240 12.91895 36207 ft 415 kts 284°
2026-05-08 18:40 51.79810 12.82926 36208 ft 415 kts 284°
2026-05-08 18:40 51.81378 12.73947 36205 ft 414 kts 284°
2026-05-08 18:41 51.82934 12.64988 36206 ft 414 kts 284°
2026-05-08 18:41 51.84481 12.56017 36202 ft 414 kts 284°
2026-05-08 18:42 51.86023 12.47038 36196 ft 414 kts 284°
2026-05-08 18:42 51.87556 12.38046 36203 ft 414 kts 284°
2026-05-08 18:43 51.89078 12.29065 36200 ft 414 kts 284°
2026-05-08 18:43 51.90601 12.20069 36204 ft 414 kts 284°
2026-05-08 18:44 51.92125 12.11053 35807 ft 415 kts 284°
2026-05-08 18:44 51.92878 12.06568 35416 ft 410 kts 284°
2026-05-08 18:44 51.93619 12.02122 35030 ft 406 kts 284°
2026-05-08 18:45 51.94339 11.97793 34652 ft 402 kts 284°
2026-05-08 18:45 51.95062 11.93445 34275 ft 397 kts 284°
2026-05-08 18:45 51.95777 11.89140 33851 ft 393 kts 284°
2026-05-08 18:45 51.96483 11.84879 33438 ft 391 kts 284°
2026-05-08 18:46 51.97184 11.80637 33008 ft 388 kts 284°
2026-05-08 18:46 51.97876 11.76435 32582 ft 385 kts 284°
2026-05-08 18:46 51.98562 11.72243 32156 ft 383 kts 284°
2026-05-08 18:46 51.99241 11.68088 31737 ft 380 kts 284°
2026-05-08 18:47 51.99915 11.63952 31335 ft 378 kts 284°
2026-05-08 18:47 52.00582 11.59839 30932 ft 376 kts 284°
2026-05-08 18:47 52.01245 11.55748 30535 ft 373 kts 284°
2026-05-08 18:47 52.01902 11.51688 30131 ft 371 kts 284°
2026-05-08 18:48 52.02556 11.47639 29663 ft 369 kts 284°
2026-05-08 18:48 52.03204 11.43623 29193 ft 367 kts 284°
2026-05-08 18:48 52.03850 11.39632 28756 ft 364 kts 284°
2026-05-08 18:48 52.04491 11.35665 28308 ft 362 kts 284°
2026-05-08 18:49 52.05124 11.31732 27884 ft 360 kts 284°
2026-05-08 18:49 52.05751 11.27814 27455 ft 358 kts 284°
2026-05-08 18:49 52.06376 11.23911 27033 ft 355 kts 284°
2026-05-08 18:49 52.06995 11.20033 26619 ft 353 kts 284°
2026-05-08 18:50 52.07608 11.16171 26211 ft 351 kts 284°
2026-05-08 18:50 52.08215 11.12329 25807 ft 350 kts 284°
2026-05-08 18:50 52.08817 11.08516 25411 ft 348 kts 284°
2026-05-08 18:50 52.09417 11.04723 25101 ft 346 kts 284°
2026-05-08 18:51 52.10014 11.00939 24860 ft 345 kts 284°
2026-05-08 18:51 52.10607 10.97162 24619 ft 344 kts 284°
2026-05-08 18:51 52.11194 10.93394 24381 ft 343 kts 283°
2026-05-08 18:51 52.11773 10.89645 24207 ft 342 kts 283°
2026-05-08 18:52 52.12343 10.85941 24177 ft 342 kts 283°
2026-05-08 18:52 52.12922 10.82189 24184 ft 342 kts 283°
2026-05-08 18:52 52.13466 10.78415 24185 ft 343 kts 282°
2026-05-08 18:52 52.13977 10.74626 24186 ft 342 kts 282°
2026-05-08 18:53 52.14470 10.70834 24185 ft 342 kts 281°
2026-05-08 18:53 52.14960 10.67030 24187 ft 343 kts 281°
2026-05-08 18:53 52.15443 10.63298 24188 ft 343 kts 281°
2026-05-08 18:53 52.15937 10.59505 24188 ft 343 kts 282°
2026-05-08 18:54 52.16436 10.55706 24189 ft 343 kts 282°
2026-05-08 18:54 52.16936 10.51913 24189 ft 343 kts 282°
2026-05-08 18:54 52.17437 10.48119 24192 ft 343 kts 282°
2026-05-08 18:54 52.17937 10.44324 24192 ft 343 kts 282°
2026-05-08 18:55 52.18929 10.36731 24191 ft 343 kts 281°
2026-05-08 18:55 52.19420 10.32931 24191 ft 343 kts 281°
2026-05-08 18:55 52.19908 10.29138 24190 ft 343 kts 281°
2026-05-08 18:56 52.20396 10.25334 24192 ft 343 kts 281°
2026-05-08 18:56 52.20882 10.21530 24187 ft 343 kts 281°
2026-05-08 18:56 52.21368 10.17727 24191 ft 343 kts 281°
2026-05-08 18:56 52.21853 10.13923 24190 ft 343 kts 281°
2026-05-08 18:57 52.22338 10.10119 24190 ft 343 kts 281°
2026-05-08 18:57 52.22659 10.07601 24191 ft 343 kts 281°
2026-05-08 18:57 52.23299 10.02560 24191 ft 343 kts 281°
2026-05-08 18:57 52.23778 9.98761 24191 ft 343 kts 281°
2026-05-08 18:58 52.24259 9.94953 24191 ft 343 kts 281°
2026-05-08 18:58 52.24739 9.91140 24196 ft 343 kts 281°
2026-05-08 18:58 52.25040 9.87294 24192 ft 343 kts 270°
2026-05-08 18:58 52.24955 9.83409 24191 ft 343 kts 268°
2026-05-08 18:59 52.24849 9.79518 24191 ft 343 kts 268°
2026-05-08 18:59 52.24747 9.75639 24191 ft 343 kts 268°
2026-05-08 18:59 52.24646 9.71753 24191 ft 343 kts 268°
2026-05-08 18:59 52.24543 9.67867 24191 ft 343 kts 268°
2026-05-08 19:00 52.24474 9.65291 24190 ft 343 kts 268°
2026-05-08 19:00 52.24367 9.61408 24193 ft 343 kts 268°
2026-05-08 19:00 52.24259 9.57524 24193 ft 343 kts 268°
2026-05-08 19:00 52.24151 9.53641 24179 ft 343 kts 268°
2026-05-08 19:01 52.24042 9.49757 24174 ft 343 kts 268°
2026-05-08 19:01 52.23930 9.45872 24171 ft 343 kts 268°
2026-05-08 19:01 52.23814 9.41990 24171 ft 343 kts 268°
2026-05-08 19:01 52.23698 9.38109 24171 ft 343 kts 268°
2026-05-08 19:02 52.23580 9.34215 24169 ft 343 kts 268°
2026-05-08 19:02 52.23463 9.30351 23951 ft 340 kts 268°
2026-05-08 19:02 52.23346 9.26504 23488 ft 338 kts 268°
2026-05-08 19:02 52.23232 9.22689 23015 ft 336 kts 268°
2026-05-08 19:03 52.23118 9.18886 22554 ft 334 kts 268°
2026-05-08 19:03 52.23006 9.15147 22122 ft 332 kts 268°
2026-05-08 19:03 52.22889 9.11374 21686 ft 330 kts 267°
2026-05-08 19:03 52.22771 9.07646 21260 ft 328 kts 267°
2026-05-08 19:04 52.22653 9.03944 20837 ft 326 kts 267°
2026-05-08 19:04 52.22537 9.00264 20426 ft 324 kts 267°
2026-05-08 19:04 52.22423 8.96651 20031 ft 322 kts 267°
2026-05-08 19:04 52.22305 8.93015 19640 ft 320 kts 267°
2026-05-08 19:05 52.22186 8.89402 19259 ft 319 kts 267°
2026-05-08 19:05 52.22067 8.85796 18873 ft 318 kts 267°
2026-05-08 19:05 52.21947 8.82201 18505 ft 316 kts 267°
2026-05-08 19:05 52.21827 8.78632 18102 ft 315 kts 267°
2026-05-08 19:06 52.21708 8.75079 17699 ft 313 kts 267°
2026-05-08 19:06 52.21589 8.71530 17303 ft 312 kts 267°
2026-05-08 19:06 52.21469 8.68013 16921 ft 311 kts 267°
2026-05-08 19:06 52.21348 8.64502 16551 ft 309 kts 267°
2026-05-08 19:07 52.21225 8.61007 16177 ft 308 kts 267°
2026-05-08 19:07 52.21099 8.57526 15840 ft 307 kts 267°
2026-05-08 19:07 52.20971 8.54066 15513 ft 305 kts 267°
2026-05-08 19:07 52.20844 8.50623 15175 ft 304 kts 267°
2026-05-08 19:08 52.20719 8.47196 14832 ft 302 kts 266°
2026-05-08 19:08 52.20593 8.43788 14503 ft 301 kts 266°
2026-05-08 19:08 52.20462 8.40387 14182 ft 300 kts 266°
2026-05-08 19:08 52.20330 8.36998 13822 ft 300 kts 266°
2026-05-08 19:09 52.20201 8.33613 13458 ft 298 kts 266°
2026-05-08 19:09 52.20056 8.30255 13112 ft 296 kts 262°
2026-05-08 19:09 52.19562 8.27008 12727 ft 296 kts 249°
2026-05-08 19:09 52.18712 8.23967 12355 ft 295 kts 245°
2026-05-08 19:10 52.17840 8.20939 11985 ft 294 kts 245°
2026-05-08 19:10 52.16976 8.17932 11656 ft 292 kts 245°
2026-05-08 19:10 52.16121 8.14953 11345 ft 290 kts 244°
2026-05-08 19:10 52.15266 8.11985 10982 ft 289 kts 244°
2026-05-08 19:11 52.14429 8.09074 10631 ft 288 kts 244°
2026-05-08 19:11 52.13581 8.06119 10275 ft 288 kts 244°
2026-05-08 19:11 52.12733 8.03173 9911 ft 287 kts 244°
2026-05-08 19:11 52.11890 8.00247 9540 ft 285 kts 244°
2026-05-08 19:12 52.11050 7.97337 9175 ft 283 kts 244°
2026-05-08 19:12 52.10217 7.94452 8806 ft 281 kts 244°
2026-05-08 19:12 52.09387 7.91590 8457 ft 278 kts 244°
2026-05-08 19:12 52.08577 7.88802 8324 ft 267 kts 244°
2026-05-08 19:13 52.07841 7.86104 8173 ft 258 kts 250°
2026-05-08 19:13 52.07266 7.83362 7864 ft 255 kts 251°
2026-05-08 19:13 52.06698 7.80650 7544 ft 252 kts 251°
2026-05-08 19:13 52.06134 7.77969 7220 ft 250 kts 251°
2026-05-08 19:14 52.05575 7.75304 6880 ft 248 kts 251°
2026-05-08 19:14 52.05023 7.72675 6561 ft 246 kts 251°
2026-05-08 19:14 52.04469 7.70045 6176 ft 246 kts 251°
2026-05-08 19:14 52.03916 7.67425 5798 ft 245 kts 251°
2026-05-08 19:15 52.03361 7.64807 5419 ft 245 kts 251°
2026-05-08 19:15 52.02807 7.62195 5025 ft 245 kts 251°
2026-05-08 19:15 52.02250 7.59582 4627 ft 245 kts 251°
2026-05-08 19:15 52.01697 7.56994 4400 ft 238 kts 251°
2026-05-08 19:16 52.01159 7.54472 4109 ft 236 kts 251°
2026-05-08 19:16 52.00624 7.51959 3799 ft 234 kts 250°
2026-05-08 19:16 52.00096 7.49484 3545 ft 230 kts 250°
2026-05-08 19:16 51.99811 7.46960 3279 ft 228 kts 276°
2026-05-08 19:17 52.00374 7.44618 3050 ft 222 kts 311°
2026-05-08 19:17 52.01544 7.43115 2983 ft 209 kts 331°
2026-05-08 19:17 52.02798 7.42176 2984 ft 197 kts 342°
2026-05-08 19:17 52.04096 7.41467 3004 ft 193 kts 344°
2026-05-08 19:18 52.05378 7.40861 2987 ft 190 kts 354°
2026-05-08 19:18 52.06670 7.40992 2984 ft 186 kts 22°
2026-05-08 19:18 52.07709 7.42110 2989 ft 181 kts 52°
2026-05-08 19:18 52.08258 7.43923 2992 ft 179 kts 73°
2026-05-08 19:19 52.08653 7.45848 2882 ft 181 kts 72°
2026-05-08 19:19 52.09059 7.47764 2601 ft 175 kts 72°
2026-05-08 19:19 52.09447 7.49573 2359 ft 164 kts 72°
2026-05-08 19:19 52.09811 7.51263 2185 ft 150 kts 73°
2026-05-08 19:20 52.10141 7.52800 1927 ft 139 kts 73°
2026-05-08 19:20 52.10350 7.53785 1769 ft 133 kts 74°
2026-05-08 19:20 52.10745 7.55657 1571 ft 131 kts 73°
2026-05-08 19:20 52.11041 7.57051 1446 ft 131 kts 74°
2026-05-08 19:21 52.11329 7.58461 1295 ft 133 kts 74°
2026-05-08 19:21 52.11617 7.59900 1131 ft 134 kts 72°
2026-05-08 19:21 52.11942 7.61313 943 ft 134 kts 70°
2026-05-08 19:21 52.12256 7.62743 757 ft 135 kts 72°
2026-05-08 19:22 52.12559 7.64209 567 ft 138 kts 71°
2026-05-08 19:22 52.12875 7.65701 367 ft 140 kts 71°
2026-05-08 19:22 52.13193 7.67188 177 ft 137 kts 72°
2026-05-08 19:22 52.13438 7.68358 169 ft 70 kts 71°
2026-05-08 19:23 52.13553 7.68905 167 ft 46 kts 71°
2026-05-08 19:23 52.13652 7.69369 169 ft 41 kts 71°
2026-05-08 19:23 52.13742 7.69798 168 ft 38 kts 71°
2026-05-08 19:23 52.13754 7.69999 167 ft 11 kts 143°
2026-05-08 19:24 52.13668 7.70035 167 ft 15 kts 186°
2026-05-08 19:24 52.13592 7.69916 167 ft 17 kts 249°
2026-05-08 19:24 52.13551 7.69726 168 ft 19 kts 251°
2026-05-08 19:24 52.13506 7.69509 168 ft 22 kts 251°
2026-05-08 19:25 52.13468 7.69328 168 ft 12 kts 251°
2026-05-08 19:25 52.13421 7.69230 167 ft 12 kts 180°
2026-05-08 19:25 52.13343 7.69273 167 ft 13 kts 160°
2026-05-08 19:25 52.13261 7.69321 167 ft 11 kts 161°
2026-05-08 19:26 52.13216 7.69275 167 ft 8 kts 248°
2026-05-08 19:26 52.13170 7.69230 167 ft 8 kts 196°
2026-05-08 19:26 52.13133 7.69210 167 ft 2 kts 198°
2026-05-08 19:26 52.13132 7.69209 167 ft 0 kts 198°